Previsão horária em Barkowo

Hoje, 29 Julho, Quinta-feira

Tempo Temperatura Precipitação Vento Pressão Humidade
00:00 +18°C° 0 mm 3 m/s 751 mmHg 90%
01:00 +17°C° 0 mm 3 m/s 751 mmHg 91%
02:00 +17°C° 0 mm 3 m/s 751 mmHg 90%
03:00 +17°C° 0 mm 3 m/s 751 mmHg 89%
04:00 +17°C° 0 mm 3 m/s 751 mmHg 89%
05:00 +18°C° 0 mm 3 m/s 751 mmHg 82%
06:00 +20°C° 0 mm 4 m/s 751 mmHg 76%
07:00 +21°C° 0 mm 4 m/s 751 mmHg 70%
08:00 +23°C° 0 mm 5 m/s 751 mmHg 62%
09:00 +24°C° 0 mm 6 m/s 751 mmHg 54%
10:00 +27°C° 0 mm 6 m/s 751 mmHg 46%
11:00 +27°C° 0 mm 6 m/s 751 mmHg 43%
12:00 +28°C° 0 mm 6 m/s 751 mmHg 40%
13:00 +28°C° 0 mm 6 m/s 751 mmHg 36%
14:00 +28°C° 0 mm 6 m/s 751 mmHg 36%
15:00 +28°C° 0 mm 6 m/s 751 mmHg 37%
16:00 +28°C° 0 mm 6 m/s 750 mmHg 37%
17:00 +27°C° 0 mm 5 m/s 750 mmHg 41%
18:00 +25°C° 0 mm 4 m/s 750 mmHg 46%
19:00 +24°C° 0 mm 3 m/s 750 mmHg 50%
20:00 +23°C° 0 mm 2 m/s 751 mmHg 54%
21:00 +20°C° 0 mm 2 m/s 751 mmHg 58%
22:00 +19°C° 0 mm 2 m/s 751 mmHg 62%
23:00 +18°C° 0 mm 2 m/s 751 mmHg 64%

Amanhã, 30 Julho, Sexta-feira

Tempo Temperatura Precipitação Vento Pressão Humidade
00:00 +18°C° 0 mm 2 m/s 751 mmHg 66%
01:00 +17°C° 0 mm 2 m/s 751 mmHg 68%
02:00 +17°C° 0 mm 2 m/s 751 mmHg 71%
03:00 +16°C° 0 mm 2 m/s 751 mmHg 74%
04:00 +16°C° 0 mm 2 m/s 751 mmHg 77%
05:00 +17°C° 0 mm 2 m/s 751 mmHg 72%
06:00 +19°C° 0 mm 2 m/s 751 mmHg 67%
07:00 +20°C° 0 mm 2 m/s 751 mmHg 62%
08:00 +22°C° 0 mm 3 m/s 751 mmHg 56%
09:00 +23°C° 0 mm 4 m/s 750 mmHg 49%
10:00 +26°C° 0 mm 5 m/s 750 mmHg 43%
11:00 +27°C° 0 mm 5 m/s 750 mmHg 40%
12:00 +28°C° 0 mm 5 m/s 749 mmHg 37%
13:00 +29°C° 0 mm 5 m/s 749 mmHg 34%
14:00 +29°C° 0 mm 5 m/s 749 mmHg 34%
15:00 +29°C° 0 mm 5 m/s 748 mmHg 34%
16:00 +29°C° 0 mm 5 m/s 748 mmHg 34%
17:00 +28°C° 0 mm 4 m/s 748 mmHg 40%
18:00 +26°C° 0 mm 2 m/s 748 mmHg 45%
19:00 +25°C° 0 mm 1 m/s 747 mmHg 50%
20:00 +24°C° 0 mm 1 m/s 748 mmHg 52%
21:00 +23°C° 0 mm 1 m/s 748 mmHg 54%
22:00 +21°C° 0 mm 1 m/s 748 mmHg 57%
23:00 +21°C° 0 mm 1 m/s 748 mmHg 59%

Depois de amanhã, 31 Julho, Sábado

Tempo Temperatura Precipitação Vento Pressão Humidade
00:00 +21°C° 0 mm 1 m/s 747 mmHg 60%
01:00 +21°C° 0 mm 1 m/s 747 mmHg 62%
02:00 +20°C° 0 mm 1 m/s 747 mmHg 65%
03:00 +20°C° 0 mm 1 m/s 747 mmHg 67%
04:00 +20°C° 0 mm 1 m/s 747 mmHg 70%
05:00 +20°C° 0 mm 3 m/s 747 mmHg 69%
06:00 +21°C° 0 mm 4 m/s 747 mmHg 68%
07:00 +22°C° 0 mm 5 m/s 747 mmHg 67%
08:00 +23°C° 0 mm 6 m/s 748 mmHg 60%
09:00 +24°C° 0 mm 6 m/s 748 mmHg 53%
10:00 +26°C° 0 mm 6 m/s 748 mmHg 46%
11:00 +27°C° 0 mm 6 m/s 748 mmHg 42%
12:00 +28°C° 0 mm 6 m/s 748 mmHg 37%
13:00 +28°C° 0 mm 6 m/s 747 mmHg 33%
14:00 +28°C° 0 mm 7 m/s 747 mmHg 33%
15:00 +28°C° 0 mm 7 m/s 747 mmHg 33%
16:00 +28°C° 0 mm 7 m/s 747 mmHg 34%
17:00 +27°C° 0 mm 6 m/s 747 mmHg 37%
18:00 +26°C° 0 mm 5 m/s 747 mmHg 41%
19:00 +23°C° 0 mm 4 m/s 747 mmHg 45%
20:00 +22°C° 0 mm 3 m/s 748 mmHg 50%
21:00 +20°C° 0 mm 3 m/s 748 mmHg 55%
22:00 +18°C° 0 mm 2 m/s 748 mmHg 61%
23:00 +18°C° 0 mm 2 m/s 748 mmHg 63%

1 Agosto, Domingo

Tempo Temperatura Precipitação Vento Pressão Humidade
00:00 +17°C° 0 mm 2 m/s 748 mmHg 65%
01:00 +17°C° 0 mm 2 m/s 749 mmHg 67%
02:00 +17°C° 0 mm 2 m/s 748 mmHg 69%
03:00 +16°C° 0 mm 2 m/s 748 mmHg 70%
04:00 +16°C° 0 mm 1 m/s 748 mmHg 72%
05:00 +17°C° 0 mm 2 m/s 748 mmHg 68%
06:00 +18°C° 0 mm 2 m/s 748 mmHg 64%
07:00 +19°C° 0 mm 2 m/s 748 mmHg 61%
08:00 +20°C° 0 mm 2 m/s 748 mmHg 59%
09:00 +21°C° 0 mm 2 m/s 748 mmHg 56%
10:00 +23°C° 0 mm 2 m/s 749 mmHg 54%
11:00 +20°C° 1 mm 2 m/s 749 mmHg 65%
12:00 +19°C° 1 mm 2 m/s 749 mmHg 77%
13:00 +17°C° 1 mm 2 m/s 749 mmHg 88%
14:00 +17°C° 0.3 mm 2 m/s 749 mmHg 88%
15:00 +18°C° 0.3 mm 1 m/s 749 mmHg 88%
16:00 +18°C° 0.3 mm 1 m/s 748 mmHg 88%
17:00 +18°C° 0 mm 1 m/s 749 mmHg 88%
18:00 +18°C° 0 mm 1 m/s 749 mmHg 87%
19:00 +17°C° 0 mm 2 m/s 749 mmHg 87%
20:00 +16°C° 0 mm 2 m/s 749 mmHg 88%
21:00 +16°C° 0 mm 2 m/s 749 mmHg 89%
22:00 +15°C° 0 mm 2 m/s 749 mmHg 90%
23:00 +15°C° 0.1 mm 2 m/s 749 mmHg 90%

2 Agosto, Segunda-feira

Tempo Temperatura Precipitação Vento Pressão Humidade
00:00 +15°C° 0.1 mm 2 m/s 749 mmHg 89%
01:00 +15°C° 0.1 mm 2 m/s 748 mmHg 89%
02:00 +15°C° 0.2 mm 2 m/s 748 mmHg 89%
03:00 +14°C° 0.2 mm 3 m/s 749 mmHg 90%
04:00 +14°C° 0.2 mm 3 m/s 749 mmHg 91%
05:00 +16°C° 0 mm 3 m/s 749 mmHg 86%
06:00 +17°C° 0 mm 3 m/s 749 mmHg 82%
07:00 +18°C° 0 mm 3 m/s 749 mmHg 78%
08:00 +19°C° 0.1 mm 4 m/s 749 mmHg 70%
09:00 +21°C° 0.1 mm 5 m/s 749 mmHg 62%
10:00 +23°C° 0.1 mm 5 m/s 749 mmHg 54%
11:00 +23°C° 0.4 mm 5 m/s 749 mmHg 53%
12:00 +23°C° 0.4 mm 6 m/s 749 mmHg 53%
13:00 +23°C° 0.4 mm 6 m/s 749 mmHg 52%
14:00 +23°C° 0.2 mm 6 m/s 750 mmHg 53%
15:00 +23°C° 0.2 mm 5 m/s 750 mmHg 55%
16:00 +23°C° 0.2 mm 5 m/s 750 mmHg 57%
17:00 +22°C° 0.1 mm 4 m/s 750 mmHg 61%
18:00 +20°C° 0.1 mm 4 m/s 750 mmHg 66%
19:00 +19°C° 0.1 mm 3 m/s 750 mmHg 71%
20:00 +18°C° 0 mm 2 m/s 750 mmHg 74%
21:00 +17°C° 0 mm 2 m/s 751 mmHg 78%
22:00 +16°C° 0 mm 2 m/s 751 mmHg 81%
23:00 +16°C° 0 mm 2 m/s 751 mmHg 83%

3 Agosto, Terça-feira

Tempo Temperatura Precipitação Vento Pressão Humidade
00:00 +15°C° 0 mm 2 m/s 751 mmHg 85%
01:00 +15°C° 0 mm 2 m/s 751 mmHg 87%
02:00 +15°C° 0 mm 2 m/s 751 mmHg 87%
03:00 +14°C° 0 mm 2 m/s 751 mmHg 88%
04:00 +14°C° 0 mm 2 m/s 751 mmHg 89%
05:00 +15°C° 0 mm 2 m/s 751 mmHg 82%
06:00 +17°C° 0 mm 2 m/s 752 mmHg 74%
07:00 +18°C° 0 mm 2 m/s 752 mmHg 67%
08:00 +20°C° 0 mm 2 m/s 752 mmHg 60%
09:00 +21°C° 0 mm 2 m/s 752 mmHg 54%
10:00 +24°C° 0 mm 2 m/s 752 mmHg 47%
11:00 +25°C° 0 mm 2 m/s 751 mmHg 44%
12:00 +26°C° 0 mm 2 m/s 751 mmHg 41%
13:00 +26°C° 0 mm 2 m/s 751 mmHg 38%
14:00 +27°C° 0 mm 2 m/s 750 mmHg 39%
15:00 +27°C° 0 mm 1 m/s 750 mmHg 40%
16:00 +27°C° 0 mm 1 m/s 750 mmHg 40%
17:00 +26°C° 0 mm 1 m/s 750 mmHg 44%
18:00 +25°C° 0 mm 2 m/s 750 mmHg 49%
19:00 +24°C° 0 mm 2 m/s 749 mmHg 53%
20:00 +23°C° 0 mm 2 m/s 750 mmHg 56%
21:00 +20°C° 0 mm 2 m/s 750 mmHg 60%
22:00 +19°C° 0 mm 2 m/s 750 mmHg 63%
23:00 +19°C° 0.2 mm 2 m/s 750 mmHg 68%
Mostrar mais